Overview Statistics Trail Chart Weather Telemetry Raw packets
 

This is the latest recevied weather packets stored in our database for station/object SV9TNF-56. If no packets are shown the sender has not sent any weather packets the latest 10 day(s).

<< 44 45 46 47 48 49 50 >>
Time Temp. Humidity Pressure Rain* Wind** Luminosity Snow
1788359928 25.56° C 65% 1010.8 hPa 0 mm 13.41 m/s, 152° - -
1788359627 25.56° C 66% 1010.8 hPa 0 mm 16.99 m/s, 110° - -
1788359327 26.11° C 64% 1010.8 hPa 0 mm 25.48 m/s, 147° - -
1788359027 26.11° C 61% 1010.8 hPa 0 mm 8.05 m/s, 109° - -
1788358728 26.11° C 57% 1010.8 hPa 0 mm 12.96 m/s, 96° - -
1788358427 26.11° C 60% 1010.8 hPa 0 mm 13.41 m/s, 134° - -
1788358127 26.11° C 61% 1010.8 hPa 0 mm 8.05 m/s, 282° - -
1788357827 26.67° C 60% 1010.8 hPa 0 mm 8.49 m/s, 186° - -
1788357530 26.11° C 60% 1010.8 hPa 0 mm 5.36 m/s, 207° - -
1788357227 26.11° C 62% 1010.8 hPa 0 mm 23.25 m/s, 102° - -
1788356927 25.56° C 63% 1010.8 hPa 0 mm 8.05 m/s, 140° - -
1788356626 26.11° C 63% 1010.8 hPa 0 mm 6.26 m/s, 257° - -
1788356327 26.11° C 63% 1010.8 hPa 0 mm 7.6 m/s, 170° - -
1788356026 26.11° C 65% 1010.8 hPa 0 mm 15.2 m/s, 108° - -
1788355726 26.11° C 67% 1011.2 hPa 0 mm 15.2 m/s, 95° - -
1788355426 26.11° C 65% 1011.2 hPa 0 mm 12.07 m/s, 146° - -
1788355126 26.11° C 65% 1010.8 hPa 0 mm 23.25 m/s, 133° - -
1788354826 26.11° C 64% 1011.2 hPa 0 mm 17.88 m/s, 147° - -
1788354526 26.67° C 61% 1011.2 hPa 0 mm 14.75 m/s, 120° - -
1788354225 26.67° C 59% 1011.2 hPa 0 mm 12.07 m/s, 162° - -
1788353926 26.67° C 57% 1011.2 hPa 0 mm 15.2 m/s, 140° - -
1788353626 26.67° C 56% 1011.2 hPa 0 mm 8.05 m/s, 164° - -
1788353325 26.67° C 59% 1011.2 hPa 0 mm 17.88 m/s, 146° - -
1788353025 26.11° C 62% 1011.2 hPa 0 mm 16.54 m/s, 120° - -
1788352725 26.11° C 63% 1011.5 hPa 0 mm 18.33 m/s, 84° - -

* Rain latest hour (hover to see other rain measurements)
** Current wind speed in m/s (hover to see current wind gust speed)